Home   Weather   Neuwied   Past weeks

Flag for Germany Past Weather in Neuwied, Rhineland-Palatinate, Germany — Yesterday and Last 2 Weeks

Now
28 °F

Chilly.


Feels Like: 20 °F
Forecast: 23 / 39 °F
Wind: 8 mph from Northeast

Location: Buechel

Current Time: Dec 3, 2016 at 10:53:52 pm

Latest Report: Dec 3, 2016 at 9:20 pm


Visibility: 6 mi

Pressure: 30.24 "Hg

Humidity: 80%

Dew Point: 23 °F

Location of NeuwiedLocation

Past Weather in Neuwied — Graph

°F

Neuwied Temperature Yesterday

Maximum temperature yesterday: 43 °F (at 1:20 pm)
Minimum temperature yesterday: 34 °F (at 12:20 am)
Average temperature yesterday: 37 °F

High & Low Weather Summary for the Past Weeks

 TemperatureHumidityPressure
High57 °F (Nov 23, 2:20 pm)100% (Nov 19, 7:20 am)30.48 "Hg (Nov 19, 7:20 am)
Low21 °F (Nov 29, 8:20 am)56% (Nov 30, 12:20 pm)29.42 "Hg (Nov 20, 10:20 am)
Average38 °F85%30.05 "Hg
* Reported Nov 18 9:20 pm — Dec 3 9:20 pm, Neuwied, Weather by CustomWeather, © 2016

Note: Actual official high and low records may vary slightly from our data, if they occured in-between our weather recording intervals... More about our weather records

Advertising

Neuwied Weather History for the Previous 24 Hours

Scroll right to see more
 ConditionsComfort  
Time TempWeatherWind HumidityBarometerVisibility
9:20 pm
Sat, Dec 3
28 °FChilly.8 mph80%30.24 "Hg6 mi
8:20 pm28 °FChilly.9 mph80%30.24 "Hg6 mi
7:20 pm27 °FChilly.8 mph86%30.24 "Hg6 mi
6:20 pm27 °FChilly.8 mph86%30.24 "Hg6 mi
5:20 pm28 °FChilly.7 mph86%30.21 "Hg6 mi
4:20 pm30 °FChilly.8 mph86%30.21 "HgN/A
3:20 pm32 °FChilly.8 mph80%30.21 "HgN/A
2:20 pm32 °FChilly.7 mph80%30.21 "HgN/A
1:20 pm32 °FChilly.6 mph87%30.21 "HgN/A
12:20 pm32 °FChilly.8 mph87%30.21 "HgN/A
11:20 am30 °FChilly.6 mph86%30.24 "Hg6 mi
10:20 am28 °FChilly.6 mph93%30.21 "HgN/A
9:20 am28 °FChilly.12 mph93%30.21 "Hg4 mi
8:20 am27 °FChilly.12 mph93%30.21 "Hg5 mi
7:20 am27 °FChilly.9 mph93%30.18 "Hg5 mi
6:20 am27 °FChilly.8 mph100%30.18 "Hg5 mi
5:20 am27 °FChilly.7 mph100%30.18 "Hg4 mi
4:20 am28 °FChilly.7 mph93%30.18 "Hg4 mi
3:20 am27 °FChilly.6 mph100%30.18 "Hg4 mi
2:20 am30 °FChilly.6 mph100%30.18 "Hg3 mi
1:20 am28 °FChilly.7 mph100%30.18 "Hg5 mi
12:20 am30 °FChilly.7 mph100%30.18 "Hg3 mi
11:20 pm
Fri, Dec 2
34 °FChilly.7 mph93%30.18 "Hg1 mi
10:20 pm34 °FChilly.8 mph100%30.18 "Hg1 mi
Weather by CustomWeather, © 2016

See weather overviewHow to use our weather pages